Location: Rio Negrinho
(26.2394°S, 49.4999°W)
Time: 22:59:34
(UTC+00:00)

ALOS - Pass Details

Date: 07 June 2020
Orbit: 683 x 686 km, 97.8° (Epoch: 10 July)

Event Time Altitude Azimuth Distance (km) Brightness Sun altitude
Rises 07:49:04 0° 4° (N) 3,029 5.8 -28.7°
Reaches altitude 10° 07:51:19 10° 359° (N) 2,121 4.9 -28.2°
Enters shadow 07:52:36 19° 355° (N) 1,623 4.2 -28.0°
